Burlington, IA

6:37 AM CDT on March 27, 2017 (GMT -0500)
Burlington Regional

Weather History for KBRL - November, 2012

Change the Weather History Date:

Saturday, November 10, 2012

  Actual Average Record
Temperature  
Mean Temperature 65 °F 45 °F  
Max Temperature 73 °F 55 °F 73 °F (1949)
Min Temperature 57 °F 36 °F 16 °F (1950)
Degree Days  
Heating Degree Days 0 20  
Month to date heating degree days 191 177  
Since 1 July heating degree days 736 571  
Cooling Degree Days 0 0  
Month to date cooling degree days 0 0  
Year to date cooling degree days 1287 1206  
Growing Degree Days 14 (Base 50)    
Moisture  
Dew Point 51 °F    
Average Humidity 63    
Maximum Humidity 86    
Minimum Humidity 40    
Precipitation  
Precipitation T in 0.08 in 0.93 in (1998)
Month to date precipitation 0.28 0.87  
Year to date precipitation 21.30 34.76  
Sea Level Pressure  
Sea Level Pressure 29.82 in    
Wind  
Wind Speed 16 mph (South)    
Max Wind Speed 29 mph    
Max Gust Speed 37 mph    
Visibility 10 miles    
Events Rain , Thunderstorm    
T = Trace of Precipitation, MM = Missing Value Source: NWS Daily Summary

Daily Weather History Graph

Daily Weather History Graph

Search for Another Location

Airport or City:

Trip Planner

Search our weather history database for the weather conditions in past years. The results will help you decide how hot, cold, wet, or windy it might be!

Date:

Astronomy

Nov. 10, 2012 Rise Set
Actual Time 6:46 AM CST 4:50 PM CST
Civil Twilight 6:17 AM CST 5:19 PM CST
Nautical Twilight 5:44 AM CST 5:52 PM CST
Astronomical Twilight 5:11 AM CST 6:24 PM CST
Moon 2:50 AM CST (11/10) 2:38 PM CST (11/10)
Length of Visible Light 11h 02m
Length of Day
10h 04m
Waning Crescent, 14% of the Moon is Illuminated
Nov 10
Waning Crescent
Nov 13
New
Nov 20
First Quarter
Nov 28
Full
Dec 6
Last Quarter

Hourly Weather History & Observations

Time (CST) Temp. Dew Point Humidity Pressure Visibility Wind Dir Wind Speed Gust Speed Precip Events Conditions
12:53 AM 61.0 °F 53.1 °F 75% 29.88 in 10.0 mi South 13.8 mph - N/A   Overcast
1:53 AM 59.0 °F 53.1 °F 81% 29.88 in 10.0 mi South 8.1 mph - N/A   Clear
2:53 AM 59.0 °F 53.1 °F 81% 29.88 in 10.0 mi SSE 10.4 mph - N/A   Clear
3:53 AM 57.9 °F 53.1 °F 84% 29.87 in 10.0 mi SSE 9.2 mph - N/A   Clear
4:53 AM 57.9 °F 52.0 °F 81% 29.87 in 10.0 mi South 11.5 mph 20.7 mph N/A   Clear
5:53 AM 57.2 °F 50.0 °F 77% 29.86 in 10.0 mi South 11.5 mph - N/A   Clear
6:53 AM 57.0 °F 50.0 °F 77% 29.85 in 10.0 mi South 12.7 mph - N/A   Clear
7:53 AM 60.1 °F 50.0 °F 69% 29.86 in 10.0 mi South 17.3 mph - N/A   Clear
8:53 AM 61.0 °F 52.0 °F 72% 29.86 in 10.0 mi South 15.0 mph - 0.00 in Rain Light Rain
9:30 AM 62.6 °F 51.8 °F 68% 29.85 in 10.0 mi SSW 20.7 mph 25.3 mph 0.00 in Thunderstorm Scattered Clouds
9:53 AM 62.1 °F 53.1 °F 72% 29.85 in 10.0 mi SSW 17.3 mph 31.1 mph 0.00 in Thunderstorm Thunderstorm
10:04 AM 62.6 °F 53.6 °F 72% 29.85 in 10.0 mi SSW 19.6 mph 27.6 mph N/A   Partly Cloudy
10:53 AM 64.9 °F 54.0 °F 68% 29.83 in 10.0 mi SSW 24.2 mph 31.1 mph N/A   Partly Cloudy
11:53 AM 69.1 °F 55.0 °F 61% 29.81 in 10.0 mi SSW 23.0 mph 33.4 mph N/A   Clear
12:53 PM 70.0 °F 55.0 °F 59% 29.79 in 10.0 mi SSW 21.9 mph 29.9 mph N/A   Clear
1:53 PM 70.0 °F 54.0 °F 57% 29.78 in 10.0 mi SSW 18.4 mph 28.8 mph N/A   Clear
2:53 PM 71.1 °F 55.0 °F 57% 29.78 in 10.0 mi South 16.1 mph 23.0 mph 0.00 in   Clear
3:53 PM 71.1 °F 55.0 °F 57% 29.78 in 10.0 mi South 11.5 mph - N/A   Clear
4:53 PM 68.0 °F 54.0 °F 61% 29.78 in 10.0 mi South 10.4 mph - N/A   Clear
5:53 PM 66.9 °F 54.0 °F 63% 29.78 in 10.0 mi South 12.7 mph - N/A   Clear
6:53 PM 68.0 °F 48.9 °F 50% 29.79 in 10.0 mi South 17.3 mph 24.2 mph N/A   Clear
7:53 PM 69.1 °F 44.1 °F 40% 29.78 in 10.0 mi South 20.7 mph 32.2 mph N/A   Clear
8:53 PM 66.9 °F 43.0 °F 42% 29.77 in 10.0 mi South 26.5 mph 34.5 mph N/A   Clear
9:53 PM 66.2 °F 44.6 °F 46% 29.78 in 10.0 mi South 25.3 mph 32.2 mph N/A   Clear
10:53 PM 64.0 °F 46.9 °F 54% 29.78 in 10.0 mi South 21.9 mph 33.4 mph N/A   Clear
11:53 PM 63.0 °F 48.0 °F 58% 29.80 in 10.0 mi South 17.3 mph 25.3 mph N/A   Clear